Total_Precipitation_Accumulation
2.32 2.60 2.73 2.93 3.08 3.24 3.47 3.73 4.09 4.24 3.97 3.89 3.79 3.65 3.31 3.13 2.83 2.53 2.24 2.15 2.13 2.26 2.59 2.38 2.57 2.55 2.57 2.55 2.59 2.83 2.86 2.62 2.73 2.54 2.03 1.54 1.21 1.15 1.16 1.16 1.18 1.12 1.20
2.14 2.38 2.37 2.59 2.70 2.98 3.45 3.76 3.76 3.68 3.44 3.47 3.65 3.80 3.74 3.32 2.78 2.50 2.35 2.08 1.99 2.08 2.23 2.31 2.22 2.27 2.33 2.35 2.40 2.59 2.46 2.22 2.43 2.50 2.39 1.75 1.37 1.06 0.88 1.12 1.15 1.14 1.31
1.72 2.00 1.97 2.01 2.17 2.48 2.85 2.96 2.85 2.77 2.64 2.62 2.82 2.96 3.18 3.03 2.69 2.38 2.19 2.03 1.94 1.89 1.95 2.03 2.04 2.05 2.00 2.07 2.23 2.23 2.17 2.05 2.06 2.26 2.43 2.03 1.57 1.26 0.91 0.84 0.92 1.11 1.23
1.56 1.67 1.71 1.72 1.73 1.74 1.85 1.96 2.04 2.07 2.12 2.14 2.29 2.45 2.61 2.58 2.48 2.39 2.13 1.88 1.68 1.62 1.63 1.63 1.66 1.73 1.77 1.90 1.79 1.84 2.01 2.03 1.90 2.01 2.06 1.98 1.92 1.74 1.22 0.89 0.87 1.08 1.13
1.30 1.36 1.42 1.44 1.44 1.43 1.55 1.66 1.79 1.91 2.03 2.04 2.09 2.24 2.50 2.44 2.24 2.07 1.90 1.76 1.62 1.50 1.42 1.45 1.45 1.44 1.48 1.59 1.63 1.82 1.85 1.90 1.86 1.83 1.83 1.91 1.91 1.76 1.52 1.16 1.05 1.03 0.94
1.05 1.19 1.26 1.29 1.26 1.25 1.38 1.49 1.55 1.60 1.70 1.77 1.80 1.78 1.86 1.88 1.75 1.65 1.59 1.48 1.36 1.30 1.30 1.30 1.30 1.30 1.34 1.47 1.51 1.55 1.57 1.62 1.67 1.64 1.64 1.73 1.67 1.60 1.64 1.37 1.26 1.21 1.02
0.84 0.95 1.11 1.12 1.16 1.15 1.19 1.24 1.30 1.32 1.30 1.32 1.24 1.19 1.26 1.39 1.38 1.34 1.34 1.28 1.13 1.03 1.02 1.09 1.12 1.14 1.22 1.34 1.38 1.34 1.36 1.43 1.48 1.45 1.51 1.60 1.57 1.55 1.68 1.71 1.54 1.42 1.18
0.59 0.66 0.77 0.84 0.87 0.92 0.98 1.02 1.04 1.06 1.07 1.08 1.08 0.99 1.00 1.10 1.17 1.25 1.19 1.12 0.99 0.88 0.86 0.91 0.98 1.04 1.08 1.12 1.28 1.33 1.34 1.37 1.41 1.40 1.58 1.57 1.46 1.49 1.61 1.77 1.90 1.78 1.49
0.55 0.55 0.60 0.64 0.61 0.67 0.71 0.73 0.80 0.89 0.96 0.98 0.97 0.87 0.85 0.98 1.07 1.11 1.14 1.15 1.12 1.02 0.97 0.97 1.00 1.07 1.13 1.19 1.28 1.36 1.37 1.44 1.48 1.56 1.66 1.59 1.46 1.44 1.51 1.77 1.96 2.06 1.84
0.48 0.49 0.46 0.44 0.41 0.48 0.60 0.66 0.81 0.88 0.86 0.81 0.74 0.65 0.71 0.90 0.99 0.95 0.93 1.04 1.08 1.06 1.05 1.05 1.03 1.03 1.07 1.17 1.26 1.37 1.41 1.48 1.57 1.61 1.70 1.74 1.65 1.64 1.67 1.80 1.96 2.09 2.12
0.45 0.43 0.44 0.42 0.37 0.40 0.52 0.58 0.64 0.77 0.81 0.72 0.65 0.59 0.57 0.64 0.75 0.80 0.78 0.85 0.91 0.96 0.92 0.88 0.85 0.86 0.87 0.90 0.98 1.05 1.12 1.20 1.29 1.33 1.44 1.59 1.73 1.74 1.75 1.81 1.86 1.98 2.14
0.34 0.31 0.35 0.40 0.43 0.51 0.53 0.49 0.50 0.55 0.66 0.66 0.61 0.60 0.57 0.54 0.53 0.55 0.59 0.62 0.68 0.72 0.66 0.64 0.64 0.64 0.63 0.65 0.68 0.75 0.88 1.00 1.10 1.18 1.24 1.23 1.31 1.42 1.50 1.61 1.74 1.87 2.07
0.39 0.34 0.38 0.41 0.42 0.49 0.55 0.50 0.49 0.52 0.61 0.62 0.61 0.61 0.58 0.54 0.48 0.45 0.47 0.49 0.47 0.47 0.46 0.52 0.54 0.52 0.54 0.58 0.62 0.69 0.78 0.86 0.92 0.97 0.98 0.93 0.97 1.05 1.18 1.27 1.42 1.62 1.89
0.34 0.33 0.40 0.50 0.50 0.42 0.43 0.45 0.45 0.50 0.58 0.66 0.75 0.72 0.63 0.57 0.52 0.46 0.43 0.40 0.38 0.38 0.39 0.44 0.48 0.48 0.52 0.61 0.73 0.82 0.82 0.82 0.79 0.74 0.71 0.71 0.81 0.89 1.00 1.12 1.20 1.33 1.55
0.30 0.30 0.36 0.45 0.50 0.46 0.44 0.41 0.45 0.51 0.53 0.62 0.71 0.71 0.65 0.60 0.57 0.50 0.41 0.38 0.36 0.32 0.36 0.44 0.50 0.54 0.57 0.56 0.62 0.71 0.72 0.74 0.72 0.65 0.56 0.53 0.60 0.67 0.76 0.83 1.00 1.14 1.34
0.32 0.29 0.28 0.30 0.38 0.40 0.40 0.38 0.37 0.42 0.47 0.51 0.55 0.60 0.63 0.57 0.51 0.44 0.38 0.35 0.32 0.33 0.36 0.42 0.45 0.45 0.39 0.40 0.43 0.50 0.54 0.55 0.58 0.58 0.50 0.43 0.43 0.49 0.56 0.66 0.75 0.87 1.03
0.21 0.20 0.21 0.22 0.24 0.25 0.30 0.41 0.39 0.36 0.43 0.50 0.51 0.56 0.61 0.57 0.48 0.38 0.37 0.36 0.36 0.40 0.45 0.44 0.43 0.42 0.43 0.37 0.34 0.33 0.40 0.43 0.43 0.47 0.51 0.42 0.37 0.44 0.49 0.54 0.53 0.63 0.75
0.15 0.15 0.14 0.14 0.14 0.15 0.19 0.28 0.35 0.42 0.45 0.51 0.54 0.57 0.59 0.58 0.55 0.49 0.47 0.49 0.52 0.53 0.55 0.52 0.47 0.49 0.46 0.34 0.30 0.30 0.31 0.36 0.39 0.41 0.44 0.47 0.49 0.46 0.45 0.54 0.56 0.52 0.55
0.15 0.18 0.17 0.14 0.16 0.20 0.24 0.34 0.46 0.52 0.55 0.56 0.60 0.60 0.64 0.70 0.71 0.65 0.59 0.60 0.62 0.58 0.58 0.58 0.53 0.52 0.50 0.37 0.28 0.27 0.32 0.37 0.40 0.41 0.39 0.39 0.46 0.46 0.36 0.43 0.50 0.52 0.52
0.16 0.15 0.17 0.18 0.20 0.25 0.35 0.46 0.60 0.70 0.71 0.65 0.63 0.67 0.71 0.77 0.84 0.82 0.76 0.72 0.73 0.66 0.61 0.58 0.58 0.55 0.55 0.43 0.27 0.25 0.33 0.40 0.44 0.50 0.45 0.35 0.31 0.31 0.29 0.40 0.49 0.50 0.50
0.20 0.19 0.20 0.23 0.27 0.28 0.37 0.54 0.62 0.71 0.77 0.74 0.73 0.82 0.90 0.95 0.99 1.05 1.03 0.99 0.90 0.83 0.77 0.70 0.70 0.69 0.64 0.51 0.34 0.31 0.38 0.47 0.52 0.53 0.51 0.45 0.30 0.26 0.26 0.34 0.45 0.50 0.54
0.18 0.23 0.29 0.32 0.31 0.32 0.42 0.55 0.62 0.67 0.76 0.80 0.87 0.94 1.05 1.03 1.06 1.30 1.33 1.31 1.22 1.04 0.95 0.90 0.86 0.84 0.79 0.63 0.46 0.37 0.40 0.50 0.60 0.64 0.60 0.55 0.38 0.32 0.32 0.32 0.37 0.42 0.44
0.18 0.23 0.33 0.40 0.47 0.53 0.61 0.71 0.70 0.74 0.83 0.94 1.04 1.07 1.12 1.23 1.29 1.39 1.39 1.37 1.33 1.21 1.08 1.03 0.97 0.97 0.97 0.86 0.60 0.51 0.48 0.55 0.63 0.69 0.66 0.55 0.44 0.40 0.38 0.35 0.39 0.44 0.46
0.24 0.25 0.31 0.46 0.62 0.73 0.76 0.76 0.78 0.88 1.00 1.12 1.22 1.27 1.31 1.31 1.35 1.46 1.45 1.41 1.34 1.27 1.20 1.16 1.08 1.05 1.10 1.04 0.91 0.80 0.73 0.74 0.77 0.77 0.74 0.61 0.51 0.48 0.49 0.45 0.43 0.47 0.54
0.28 0.34 0.42 0.53 0.59 0.71 0.85 0.93 1.04 1.18 1.24 1.24 1.28 1.32 1.36 1.44 1.50 1.50 1.49 1.47 1.44 1.30 1.24 1.21 1.21 1.17 1.17 1.03 0.92 0.91 0.92 0.96 0.98 0.94 0.95 0.93 0.85 0.74 0.72 0.69 0.67 0.67 0.68
0.32 0.41 0.53 0.65 0.73 0.86 1.00 1.08 1.19 1.36 1.50 1.47 1.38 1.42 1.45 1.52 1.56 1.53 1.45 1.35 1.26 1.13 1.05 1.04 1.03 1.01 1.00 0.96 0.85 0.84 0.88 0.92 0.93 0.94 1.01 1.08 1.08 0.99 0.94 0.89 0.85 0.83 0.80